{"data":{"norad_id":61735,"epoch":"2026-05-25T04:43:56.021088Z","epoch_age_seconds":51180,"freshness":"FRESH","line1":"1 61735U 24199A   26145.19717617  .00000039  00000+0  37019-4 0  9999","line2":"2 61735  98.7204  18.6088 0001070 140.1460 219.9797 14.22749544124439","mean_motion":14.22749544,"eccentricity":0.000107,"inclination_deg":98.7204,"raan_deg":18.6088,"arg_perigee_deg":140.146,"mean_anomaly_deg":219.9797,"bstar":3.7019e-5,"rev_number":12443,"period_min":101.21247313505,"perigee_km":815.29925225541,"apogee_km":816.83881234632,"semimajor_km":7194.2060323009,"source":"CELESTRAK","updated_at":"2026-05-25T13:38:12.837614Z"}}